Year,Month,Day,Hour,Minute,Value (Times are PST for windgust in km/hr)
2008,07,09,00,00,0.00
2008,07,09,00,01,0.00
2008,07,09,00,02,0.00
2008,07,09,00,03,0.00
2008,07,09,00,04,0.00
2008,07,09,00,05,0.00
2008,07,09,00,06,0.00
2008,07,09,00,07,0.00
2008,07,09,00,08,0.00
2008,07,09,00,09,0.00
2008,07,09,00,10,0.00
2008,07,09,00,11,0.00
2008,07,09,00,12,0.00
2008,07,09,00,13,0.00
2008,07,09,00,14,0.00
2008,07,09,00,15,0.00
2008,07,09,00,16,0.00
2008,07,09,00,17,0.00
2008,07,09,00,18,0.00
2008,07,09,00,19,0.00
2008,07,09,00,20,0.00
2008,07,09,00,21,0.00
2008,07,09,00,22,0.00
2008,07,09,00,23,0.00
2008,07,09,00,24,0.00
2008,07,09,00,25,0.00
2008,07,09,00,26,0.00
2008,07,09,00,27,0.00
2008,07,09,00,28,0.00
2008,07,09,00,29,1.60
2008,07,09,00,30,3.20
2008,07,09,00,31,3.20
2008,07,09,00,32,1.60
2008,07,09,00,33,1.60
2008,07,09,00,34,3.20
2008,07,09,00,35,0.00
2008,07,09,00,36,1.60
2008,07,09,00,37,0.00
2008,07,09,00,38,0.00
2008,07,09,00,39,0.00
2008,07,09,00,40,0.00
2008,07,09,00,41,0.00
2008,07,09,00,42,0.00
2008,07,09,00,43,0.00
2008,07,09,00,44,0.00
2008,07,09,00,45,0.00
2008,07,09,00,46,0.00
2008,07,09,00,47,0.00
2008,07,09,00,48,0.00
2008,07,09,00,49,0.00
2008,07,09,00,50,0.00
2008,07,09,00,51,0.00
2008,07,09,00,52,0.00
2008,07,09,00,53,0.00
2008,07,09,00,54,0.00
2008,07,09,00,55,0.00
2008,07,09,00,56,0.00
2008,07,09,00,57,0.00
2008,07,09,00,58,0.00
2008,07,09,00,59,0.00
2008,07,09,01,00,1.60
2008,07,09,01,01,1.60
2008,07,09,01,02,3.20
2008,07,09,01,03,0.00
2008,07,09,01,04,3.20
2008,07,09,01,05,3.20
2008,07,09,01,06,4.80
2008,07,09,01,07,3.20
2008,07,09,01,08,3.20
2008,07,09,01,09,1.60
2008,07,09,01,10,0.00
2008,07,09,01,11,0.00
2008,07,09,01,12,0.00
2008,07,09,01,13,0.00
2008,07,09,01,14,1.60
2008,07,09,01,15,0.00
2008,07,09,01,16,1.60
2008,07,09,01,17,1.60
2008,07,09,01,18,0.00
2008,07,09,01,19,0.00
2008,07,09,01,20,0.00
2008,07,09,01,21,1.60
2008,07,09,01,22,0.00
2008,07,09,01,23,0.00
2008,07,09,01,24,0.00
2008,07,09,01,25,0.00
2008,07,09,01,26,3.20
2008,07,09,01,27,3.20
2008,07,09,01,28,1.60
2008,07,09,01,29,4.80
2008,07,09,01,30,3.20
2008,07,09,01,31,3.20
2008,07,09,01,32,4.80
2008,07,09,01,33,3.20
2008,07,09,01,34,3.20
2008,07,09,01,35,4.80
2008,07,09,01,36,4.80
2008,07,09,01,37,4.80
2008,07,09,01,38,3.20
2008,07,09,01,39,4.80
2008,07,09,01,40,6.40
2008,07,09,01,41,6.40
2008,07,09,01,42,6.40
2008,07,09,01,43,8.10
2008,07,09,01,44,8.10
2008,07,09,01,45,6.40
2008,07,09,01,46,6.40
2008,07,09,01,47,4.80
2008,07,09,01,48,4.80
2008,07,09,01,49,6.40
2008,07,09,01,50,6.40
2008,07,09,01,51,8.10
2008,07,09,01,52,4.80
2008,07,09,01,53,6.40
2008,07,09,01,54,8.10
2008,07,09,01,55,8.10
2008,07,09,01,56,8.10
2008,07,09,01,57,8.10
2008,07,09,01,58,9.60
2008,07,09,01,59,6.40
2008,07,09,02,00,9.60
2008,07,09,02,01,11.30
2008,07,09,02,02,8.10
2008,07,09,02,03,8.10
2008,07,09,02,04,6.40
2008,07,09,02,05,9.60
2008,07,09,02,06,9.60
2008,07,09,02,07,8.10
2008,07,09,02,08,9.60
2008,07,09,02,09,6.40
2008,07,09,02,10,6.40
2008,07,09,02,11,4.80
2008,07,09,02,12,6.40
2008,07,09,02,13,3.20
2008,07,09,02,14,1.60
2008,07,09,02,15,1.60
2008,07,09,02,16,4.80
2008,07,09,02,17,3.20
2008,07,09,02,18,3.20
2008,07,09,02,19,3.20
2008,07,09,02,20,0.00
2008,07,09,02,21,3.20
2008,07,09,02,22,3.20
2008,07,09,02,23,3.20
2008,07,09,02,24,1.60
2008,07,09,02,25,1.60
2008,07,09,02,26,3.20
2008,07,09,02,27,3.20
2008,07,09,02,28,4.80
2008,07,09,02,29,3.20
2008,07,09,02,30,3.20
2008,07,09,02,31,3.20
2008,07,09,02,32,3.20
2008,07,09,02,33,3.20
2008,07,09,02,34,1.60
2008,07,09,02,35,1.60
2008,07,09,02,36,1.60
2008,07,09,02,37,1.60
2008,07,09,02,38,1.60
2008,07,09,02,39,0.00
2008,07,09,02,40,1.60
2008,07,09,02,41,3.20
2008,07,09,02,42,3.20
2008,07,09,02,43,4.80
2008,07,09,02,44,6.40
2008,07,09,02,45,3.20
2008,07,09,02,46,3.20
2008,07,09,02,47,1.60
2008,07,09,02,48,1.60
2008,07,09,02,49,1.60
2008,07,09,02,50,4.80
2008,07,09,02,51,3.20
2008,07,09,02,52,3.20
2008,07,09,02,53,3.20
2008,07,09,02,54,3.20
2008,07,09,02,55,3.20
2008,07,09,02,56,3.20
2008,07,09,02,57,3.20
2008,07,09,02,58,3.20
2008,07,09,02,59,3.20
2008,07,09,03,00,3.20
2008,07,09,03,01,3.20
2008,07,09,03,02,6.40
2008,07,09,03,03,4.80
2008,07,09,03,04,4.80
2008,07,09,03,05,4.80
2008,07,09,03,06,6.40
2008,07,09,03,07,6.40
2008,07,09,03,08,6.40
2008,07,09,03,09,6.40
2008,07,09,03,10,4.80
2008,07,09,03,11,4.80
2008,07,09,03,12,4.80
2008,07,09,03,13,4.80
2008,07,09,03,14,4.80
2008,07,09,03,15,8.10
2008,07,09,03,16,6.40
2008,07,09,03,17,4.80
2008,07,09,03,18,3.20
2008,07,09,03,19,3.20
2008,07,09,03,20,3.20
2008,07,09,03,21,3.20
2008,07,09,03,22,3.20
2008,07,09,03,23,4.80
2008,07,09,03,24,4.80
2008,07,09,03,25,3.20
2008,07,09,03,26,1.60
2008,07,09,03,27,3.20
2008,07,09,03,28,3.20
2008,07,09,03,29,4.80
2008,07,09,03,30,3.20
2008,07,09,03,31,4.80
2008,07,09,03,32,4.80
2008,07,09,03,33,4.80
2008,07,09,03,34,4.80
2008,07,09,03,35,4.80
2008,07,09,03,36,4.80
2008,07,09,03,37,4.80
2008,07,09,03,38,4.80
2008,07,09,03,39,6.40
2008,07,09,03,40,6.40
2008,07,09,03,41,6.40
2008,07,09,03,42,4.80
2008,07,09,03,43,4.80
2008,07,09,03,44,6.40
2008,07,09,03,45,4.80
2008,07,09,03,46,3.20
2008,07,09,03,47,4.80
2008,07,09,03,48,4.80
2008,07,09,03,49,4.80
2008,07,09,03,50,6.40
2008,07,09,03,51,4.80
2008,07,09,03,52,4.80
2008,07,09,03,53,4.80
2008,07,09,03,54,4.80
2008,07,09,03,55,4.80
2008,07,09,03,56,3.20
2008,07,09,03,57,4.80
2008,07,09,03,58,6.40
2008,07,09,03,59,4.80
2008,07,09,04,00,6.40
2008,07,09,04,01,4.80
2008,07,09,04,02,6.40
2008,07,09,04,03,6.40
2008,07,09,04,04,6.40
2008,07,09,04,05,6.40
2008,07,09,04,06,6.40
2008,07,09,04,07,6.40
2008,07,09,04,08,4.80
2008,07,09,04,09,4.80
2008,07,09,04,10,4.80
2008,07,09,04,11,6.40
2008,07,09,04,12,4.80
2008,07,09,04,13,6.40
2008,07,09,04,14,6.40
2008,07,09,04,15,8.10
2008,07,09,04,16,8.10
2008,07,09,04,17,9.60
2008,07,09,04,18,6.40
2008,07,09,04,19,8.10
2008,07,09,04,20,8.10
2008,07,09,04,21,6.40
2008,07,09,04,22,6.40
2008,07,09,04,23,6.40
2008,07,09,04,24,6.40
2008,07,09,04,25,8.10
2008,07,09,04,26,8.10
2008,07,09,04,27,6.40
2008,07,09,04,28,8.10
2008,07,09,04,29,6.40
2008,07,09,04,30,8.10
2008,07,09,04,31,8.10
2008,07,09,04,32,6.40
2008,07,09,04,33,6.40
2008,07,09,04,34,6.40
2008,07,09,04,35,4.80
2008,07,09,04,36,8.10
2008,07,09,04,37,6.40
2008,07,09,04,38,6.40
2008,07,09,04,39,8.10
2008,07,09,04,40,8.10
2008,07,09,04,41,8.10
2008,07,09,04,42,6.40
2008,07,09,04,43,6.40
2008,07,09,04,44,6.40
2008,07,09,04,45,6.40
2008,07,09,04,46,6.40
2008,07,09,04,47,6.40
2008,07,09,04,48,4.80
2008,07,09,04,49,4.80
2008,07,09,04,50,6.40
2008,07,09,04,51,6.40
2008,07,09,04,52,4.80
2008,07,09,04,53,6.40
2008,07,09,04,54,4.80
2008,07,09,04,55,6.40
2008,07,09,04,56,6.40
2008,07,09,04,57,6.40
2008,07,09,04,58,4.80
2008,07,09,04,59,8.10
2008,07,09,05,00,6.40
2008,07,09,05,01,8.10
2008,07,09,05,02,9.60
2008,07,09,05,03,6.40
2008,07,09,05,04,6.40
2008,07,09,05,05,9.60
2008,07,09,05,06,8.10
2008,07,09,05,07,11.30
2008,07,09,05,08,8.10
2008,07,09,05,09,6.40
2008,07,09,05,10,6.40
2008,07,09,05,11,4.80
2008,07,09,05,12,6.40
2008,07,09,05,13,4.80
2008,07,09,05,14,3.20
2008,07,09,05,15,4.80
2008,07,09,05,16,3.20
2008,07,09,05,17,3.20
2008,07,09,05,18,4.80
2008,07,09,05,19,1.60
2008,07,09,05,20,4.80
2008,07,09,05,21,3.20
2008,07,09,05,22,1.60
2008,07,09,05,23,3.20
2008,07,09,05,24,3.20
2008,07,09,05,25,4.80
2008,07,09,05,26,4.80
2008,07,09,05,27,4.80
2008,07,09,05,28,6.40
2008,07,09,05,29,6.40
2008,07,09,05,30,4.80
2008,07,09,05,31,3.20
2008,07,09,05,32,3.20
2008,07,09,05,33,4.80
2008,07,09,05,34,4.80
2008,07,09,05,35,3.20
2008,07,09,05,36,3.20
2008,07,09,05,37,3.20
2008,07,09,05,38,4.80
2008,07,09,05,39,4.80
2008,07,09,05,40,9.60
2008,07,09,05,41,6.40
2008,07,09,05,42,6.40
2008,07,09,05,43,6.40
2008,07,09,05,44,6.40
2008,07,09,05,45,8.10
2008,07,09,05,46,8.10
2008,07,09,05,47,8.10
2008,07,09,05,48,6.40
2008,07,09,05,49,4.80
2008,07,09,05,50,4.80
2008,07,09,05,51,4.80
2008,07,09,05,52,6.40
2008,07,09,05,53,6.40
2008,07,09,05,54,3.20
2008,07,09,05,55,4.80
2008,07,09,05,56,4.80
2008,07,09,05,57,6.40
2008,07,09,05,58,6.40
2008,07,09,05,59,6.40
2008,07,09,06,00,6.40
2008,07,09,06,01,4.80
2008,07,09,06,02,6.40
2008,07,09,06,03,6.40
2008,07,09,06,04,6.40
2008,07,09,06,05,4.80
2008,07,09,06,06,6.40
2008,07,09,06,07,4.80
2008,07,09,06,08,6.40
2008,07,09,06,09,4.80
2008,07,09,06,10,4.80
2008,07,09,06,11,1.60
2008,07,09,06,12,6.40
2008,07,09,06,13,4.80
2008,07,09,06,14,6.40
2008,07,09,06,15,4.80
2008,07,09,06,16,4.80
2008,07,09,06,17,4.80
2008,07,09,06,18,6.40
2008,07,09,06,19,4.80
2008,07,09,06,20,3.20
2008,07,09,06,21,4.80
2008,07,09,06,22,4.80
2008,07,09,06,23,6.40
2008,07,09,06,24,4.80
2008,07,09,06,25,4.80
2008,07,09,06,26,9.60
2008,07,09,06,27,3.20
2008,07,09,06,28,9.60
2008,07,09,06,29,8.10
2008,07,09,06,30,8.10
2008,07,09,06,31,4.80
2008,07,09,06,32,8.10
2008,07,09,06,33,6.40
2008,07,09,06,34,9.60
2008,07,09,06,35,6.40
2008,07,09,06,36,6.40
2008,07,09,06,37,11.30
2008,07,09,06,38,9.60
2008,07,09,06,39,9.60
2008,07,09,06,40,11.30
2008,07,09,06,41,6.40
2008,07,09,06,42,6.40
2008,07,09,06,43,6.40
2008,07,09,06,44,6.40
2008,07,09,06,45,4.80
2008,07,09,06,46,8.10
2008,07,09,06,47,8.10
2008,07,09,06,48,8.10
2008,07,09,06,49,9.60
2008,07,09,06,50,8.10
2008,07,09,06,51,8.10
2008,07,09,06,52,8.10
2008,07,09,06,53,8.10
2008,07,09,06,54,6.40
2008,07,09,06,55,4.80
2008,07,09,06,56,6.40
2008,07,09,06,57,11.30
2008,07,09,06,58,8.10
2008,07,09,06,59,19.30
2008,07,09,07,00,22.50
2008,07,09,07,01,20.90
2008,07,09,07,02,20.90
2008,07,09,07,03,16.10
2008,07,09,07,04,17.70
2008,07,09,07,05,11.30
2008,07,09,07,06,14.50
2008,07,09,07,07,11.30
2008,07,09,07,08,9.60
2008,07,09,07,09,8.10
2008,07,09,07,10,9.60
2008,07,09,07,11,8.10
2008,07,09,07,12,8.10
2008,07,09,07,13,4.80
2008,07,09,07,14,20.90
2008,07,09,07,15,8.10
2008,07,09,07,16,8.10
2008,07,09,07,17,9.60
2008,07,09,07,18,9.60
2008,07,09,07,19,16.10
2008,07,09,07,20,19.30
2008,07,09,07,21,22.50
2008,07,09,07,22,17.70
2008,07,09,07,23,11.30
2008,07,09,07,24,17.70
2008,07,09,07,25,19.30
2008,07,09,07,26,19.30
2008,07,09,07,27,9.60
2008,07,09,07,28,20.90
2008,07,09,07,29,24.20
2008,07,09,07,30,12.90
2008,07,09,07,31,16.10
2008,07,09,07,32,11.30
2008,07,09,07,33,19.30
2008,07,09,07,34,9.60
2008,07,09,07,35,17.70
2008,07,09,07,36,22.50
2008,07,09,07,37,19.30
2008,07,09,07,38,17.70
2008,07,09,07,39,20.90
2008,07,09,07,40,14.50
2008,07,09,07,41,17.70
2008,07,09,07,42,17.70
2008,07,09,07,43,19.30
2008,07,09,07,44,20.90
2008,07,09,07,45,16.10
2008,07,09,07,46,14.50
2008,07,09,07,47,25.70
2008,07,09,07,48,25.70
2008,07,09,07,49,17.70
2008,07,09,07,50,25.70
2008,07,09,07,51,22.50
2008,07,09,07,52,20.90
2008,07,09,07,53,24.20
2008,07,09,07,54,19.30
2008,07,09,07,55,22.50
2008,07,09,07,56,17.70
2008,07,09,07,57,20.90
2008,07,09,07,58,14.50
2008,07,09,07,59,19.30
2008,07,09,08,00,19.30
2008,07,09,08,01,16.10
2008,07,09,08,02,20.90
2008,07,09,08,03,19.30
2008,07,09,08,04,19.30
2008,07,09,08,05,16.10
2008,07,09,08,06,12.90
2008,07,09,08,07,12.90
2008,07,09,08,08,19.30
2008,07,09,08,09,19.30
2008,07,09,08,10,17.70
2008,07,09,08,11,16.10
2008,07,09,08,12,16.10
2008,07,09,08,13,22.50
2008,07,09,08,14,16.10
2008,07,09,08,15,14.50
2008,07,09,08,16,17.70
2008,07,09,08,17,8.10
2008,07,09,08,18,8.10
2008,07,09,08,19,22.50
2008,07,09,08,20,19.30
2008,07,09,08,21,9.60
2008,07,09,08,22,16.10
2008,07,09,08,23,19.30
2008,07,09,08,24,19.30
2008,07,09,08,25,14.50
2008,07,09,08,26,9.60
2008,07,09,08,27,8.10
2008,07,09,08,28,9.60
2008,07,09,08,29,11.30
2008,07,09,08,30,14.50
2008,07,09,08,31,14.50
2008,07,09,08,32,20.90
2008,07,09,08,33,19.30
2008,07,09,08,34,20.90
2008,07,09,08,35,20.90
2008,07,09,08,36,14.50
2008,07,09,08,37,20.90
2008,07,09,08,38,19.30
2008,07,09,08,39,11.30
2008,07,09,08,40,11.30
2008,07,09,08,41,11.30
2008,07,09,08,42,19.30
2008,07,09,08,43,17.70
2008,07,09,08,44,16.10
2008,07,09,08,45,16.10
2008,07,09,08,46,9.60
2008,07,09,08,47,17.70
2008,07,09,08,48,16.10
2008,07,09,08,49,16.10
2008,07,09,08,50,17.70
2008,07,09,08,51,17.70
2008,07,09,08,52,14.50
2008,07,09,08,53,17.70
2008,07,09,08,54,14.50
2008,07,09,08,55,14.50
2008,07,09,08,56,12.90
2008,07,09,08,57,14.50
2008,07,09,08,58,9.60
2008,07,09,08,59,17.70
2008,07,09,09,00,9.60
2008,07,09,09,01,16.10
2008,07,09,09,02,19.30
2008,07,09,09,03,20.90
2008,07,09,09,04,17.70
2008,07,09,09,05,16.10
2008,07,09,09,06,17.70
2008,07,09,09,07,16.10
2008,07,09,09,08,14.50
2008,07,09,09,09,22.50
2008,07,09,09,10,20.90
2008,07,09,09,11,16.10
2008,07,09,09,12,16.10
2008,07,09,09,13,17.70
2008,07,09,09,14,24.20
2008,07,09,09,15,19.30
2008,07,09,09,16,16.10
2008,07,09,09,17,22.50
2008,07,09,09,18,20.90
2008,07,09,09,19,14.50
2008,07,09,09,20,20.90
2008,07,09,09,21,19.30
2008,07,09,09,22,17.70
2008,07,09,09,23,27.40
2008,07,09,09,24,25.70
2008,07,09,09,25,20.90
2008,07,09,09,26,19.30
2008,07,09,09,27,24.20
2008,07,09,09,28,14.50
2008,07,09,09,29,16.10
2008,07,09,09,30,17.70
2008,07,09,09,31,19.30
2008,07,09,09,32,16.10
2008,07,09,09,33,17.70
2008,07,09,09,34,12.90
2008,07,09,09,35,17.70
2008,07,09,09,36,14.50
2008,07,09,09,37,19.30
2008,07,09,09,38,16.10
2008,07,09,09,39,16.10
2008,07,09,09,40,19.30
2008,07,09,09,41,17.70
2008,07,09,09,42,14.50
2008,07,09,09,43,16.10
2008,07,09,09,44,14.50
2008,07,09,09,45,19.30
2008,07,09,09,46,17.70
2008,07,09,09,47,11.30
2008,07,09,09,48,16.10
2008,07,09,09,49,14.50
2008,07,09,09,50,9.60
2008,07,09,09,51,17.70
2008,07,09,09,52,16.10
2008,07,09,09,53,16.10
2008,07,09,09,54,17.70
2008,07,09,09,55,14.50
2008,07,09,09,56,11.30
2008,07,09,09,57,9.60
2008,07,09,09,58,6.40
2008,07,09,09,59,14.50
2008,07,09,10,00,14.50
2008,07,09,10,01,19.30
2008,07,09,10,02,14.50
2008,07,09,10,03,17.70
2008,07,09,10,04,16.10
2008,07,09,10,05,19.30
2008,07,09,10,06,16.10
2008,07,09,10,07,12.90
2008,07,09,10,08,19.30
2008,07,09,10,09,17.70
2008,07,09,10,10,11.30
2008,07,09,10,11,19.30
2008,07,09,10,12,17.70
2008,07,09,10,13,19.30
2008,07,09,10,14,19.30
2008,07,09,10,15,17.70
2008,07,09,10,16,12.90
2008,07,09,10,17,20.90
2008,07,09,10,18,17.70
2008,07,09,10,19,19.30
2008,07,09,10,20,19.30
2008,07,09,10,21,17.70
2008,07,09,10,22,16.10
2008,07,09,10,23,16.10
2008,07,09,10,24,16.10
2008,07,09,10,25,17.70
2008,07,09,10,26,24.20
2008,07,09,10,27,22.50
2008,07,09,10,28,19.30
2008,07,09,10,29,19.30
2008,07,09,10,30,19.30
2008,07,09,10,31,17.70
2008,07,09,10,32,16.10
2008,07,09,10,33,16.10
2008,07,09,10,34,14.50
2008,07,09,10,35,19.30
2008,07,09,10,36,17.70
2008,07,09,10,37,19.30
2008,07,09,10,38,19.30
2008,07,09,10,39,17.70
2008,07,09,10,40,14.50
2008,07,09,10,41,16.10
2008,07,09,10,42,11.30
2008,07,09,10,43,12.90
2008,07,09,10,44,16.10
2008,07,09,10,45,11.30
2008,07,09,10,46,16.10
2008,07,09,10,47,11.30
2008,07,09,10,48,8.10
2008,07,09,10,49,8.10
2008,07,09,10,50,11.30
2008,07,09,10,51,11.30
2008,07,09,10,52,11.30
2008,07,09,10,53,14.50
2008,07,09,10,54,19.30
2008,07,09,10,55,16.10
2008,07,09,10,56,12.90
2008,07,09,10,57,12.90
2008,07,09,10,58,11.30
2008,07,09,10,59,16.10
2008,07,09,11,00,14.50
2008,07,09,11,01,14.50
2008,07,09,11,02,11.30
2008,07,09,11,03,11.30
2008,07,09,11,04,9.60
2008,07,09,11,05,9.60
2008,07,09,11,06,14.50
2008,07,09,11,07,14.50
2008,07,09,11,08,11.30
2008,07,09,11,09,11.30
2008,07,09,11,10,12.90
2008,07,09,11,11,17.70
2008,07,09,11,12,16.10
2008,07,09,11,13,16.10
2008,07,09,11,14,22.50
2008,07,09,11,15,17.70
2008,07,09,11,16,19.30
2008,07,09,11,17,11.30
2008,07,09,11,18,17.70
2008,07,09,11,19,19.30
2008,07,09,11,20,19.30
2008,07,09,11,21,19.30
2008,07,09,11,22,17.70
2008,07,09,11,23,17.70
2008,07,09,11,24,16.10
2008,07,09,11,25,16.10
2008,07,09,11,26,16.10
2008,07,09,11,27,17.70
2008,07,09,11,28,17.70
2008,07,09,11,29,19.30
2008,07,09,11,30,17.70
2008,07,09,11,31,17.70
2008,07,09,11,32,16.10
2008,07,09,11,33,16.10
2008,07,09,11,34,17.70
2008,07,09,11,35,14.50
2008,07,09,11,36,16.10
2008,07,09,11,37,16.10
2008,07,09,11,38,17.70
2008,07,09,11,39,16.10
2008,07,09,11,40,9.60
2008,07,09,11,41,8.10
2008,07,09,11,42,16.10
2008,07,09,11,43,17.70
2008,07,09,11,44,16.10
2008,07,09,11,45,17.70
2008,07,09,11,46,17.70
2008,07,09,11,47,11.30
2008,07,09,11,48,14.50
2008,07,09,11,49,17.70
2008,07,09,11,50,16.10
2008,07,09,11,51,19.30
2008,07,09,11,52,16.10
2008,07,09,11,53,16.10
2008,07,09,11,54,11.30
2008,07,09,11,55,16.10
2008,07,09,11,56,14.50
2008,07,09,11,57,16.10
2008,07,09,11,58,16.10
2008,07,09,11,59,16.10
2008,07,09,12,00,16.10
2008,07,09,12,01,17.70
2008,07,09,12,02,19.30
2008,07,09,12,03,14.50
2008,07,09,12,04,14.50
2008,07,09,12,05,16.10
2008,07,09,12,06,17.70
2008,07,09,12,07,16.10
2008,07,09,12,08,14.50
2008,07,09,12,09,17.70
2008,07,09,12,10,14.50
2008,07,09,12,11,14.50
2008,07,09,12,12,9.60
2008,07,09,12,13,11.30
2008,07,09,12,14,19.30
2008,07,09,12,15,17.70
2008,07,09,12,16,17.70
2008,07,09,12,17,9.60
2008,07,09,12,18,11.30
2008,07,09,12,19,17.70
2008,07,09,12,20,14.50
2008,07,09,12,21,16.10
2008,07,09,12,22,14.50
2008,07,09,12,23,16.10
2008,07,09,12,24,14.50
2008,07,09,12,25,16.10
2008,07,09,12,26,14.50
2008,07,09,12,27,17.70
2008,07,09,12,28,20.90
2008,07,09,12,29,14.50
2008,07,09,12,30,16.10
2008,07,09,12,31,16.10
2008,07,09,12,32,19.30
2008,07,09,12,33,17.70
2008,07,09,12,34,17.70
2008,07,09,12,35,16.10
2008,07,09,12,36,17.70
2008,07,09,12,37,17.70
2008,07,09,12,38,16.10
2008,07,09,12,39,19.30
2008,07,09,12,40,17.70
2008,07,09,12,41,17.70
2008,07,09,12,42,19.30
2008,07,09,12,43,17.70
2008,07,09,12,44,14.50
2008,07,09,12,45,16.10
2008,07,09,12,46,14.50
2008,07,09,12,47,14.50
2008,07,09,12,48,16.10
2008,07,09,12,49,17.70
2008,07,09,12,50,9.60
2008,07,09,12,51,17.70
2008,07,09,12,52,14.50
2008,07,09,12,53,16.10
2008,07,09,12,54,17.70
2008,07,09,12,55,14.50
2008,07,09,12,56,16.10
2008,07,09,12,57,20.90
2008,07,09,12,58,14.50
2008,07,09,12,59,14.50
2008,07,09,13,00,16.10
2008,07,09,13,01,14.50
2008,07,09,13,02,16.10
2008,07,09,13,03,11.30
2008,07,09,13,04,14.50
2008,07,09,13,05,11.30
2008,07,09,13,06,16.10
2008,07,09,13,07,14.50
2008,07,09,13,08,14.50
2008,07,09,13,09,11.30
2008,07,09,13,10,14.50
2008,07,09,13,11,14.50
2008,07,09,13,12,16.10
2008,07,09,13,13,16.10
2008,07,09,13,14,17.70
2008,07,09,13,15,16.10
2008,07,09,13,16,16.10
2008,07,09,13,17,20.90
2008,07,09,13,18,11.30
2008,07,09,13,19,17.70
2008,07,09,13,20,8.10
2008,07,09,13,21,14.50
2008,07,09,13,22,14.50
2008,07,09,13,23,9.60
2008,07,09,13,24,11.30
2008,07,09,13,25,16.10
2008,07,09,13,26,12.90
2008,07,09,13,27,11.30
2008,07,09,13,28,16.10
2008,07,09,13,29,11.30
2008,07,09,13,30,12.90
2008,07,09,13,31,12.90
2008,07,09,13,32,14.50
2008,07,09,13,33,14.50
2008,07,09,13,34,14.50
2008,07,09,13,35,12.90
2008,07,09,13,36,16.10
2008,07,09,13,37,12.90
2008,07,09,13,38,11.30
2008,07,09,13,39,11.30
2008,07,09,13,40,8.10
2008,07,09,13,41,11.30
2008,07,09,13,42,9.60
2008,07,09,13,43,11.30
2008,07,09,13,44,11.30
2008,07,09,13,45,4.80
2008,07,09,13,46,9.60
2008,07,09,13,47,11.30
2008,07,09,13,48,11.30
2008,07,09,13,49,14.50
2008,07,09,13,50,12.90
2008,07,09,13,51,14.50
2008,07,09,13,52,14.50
2008,07,09,13,53,8.10
2008,07,09,13,54,16.10
2008,07,09,13,55,14.50
2008,07,09,13,56,14.50
2008,07,09,13,57,14.50
2008,07,09,13,58,11.30
2008,07,09,13,59,14.50
2008,07,09,14,00,16.10
2008,07,09,14,01,17.70
2008,07,09,14,02,17.70
2008,07,09,14,03,14.50
2008,07,09,14,04,9.60
2008,07,09,14,05,11.30
2008,07,09,14,06,9.60
2008,07,09,14,07,11.30
2008,07,09,14,08,14.50
2008,07,09,14,09,11.30
2008,07,09,14,10,9.60
2008,07,09,14,11,8.10
2008,07,09,14,12,8.10
2008,07,09,14,13,8.10
2008,07,09,14,14,12.90
2008,07,09,14,15,14.50
2008,07,09,14,16,16.10
2008,07,09,14,17,14.50
2008,07,09,14,18,8.10
2008,07,09,14,19,11.30
2008,07,09,14,20,11.30
2008,07,09,14,21,16.10
2008,07,09,14,22,17.70
2008,07,09,14,23,11.30
2008,07,09,14,24,11.30
2008,07,09,14,25,16.10
2008,07,09,14,26,12.90
2008,07,09,14,27,14.50
2008,07,09,14,28,9.60
2008,07,09,14,29,17.70
2008,07,09,14,30,16.10
2008,07,09,14,31,14.50
2008,07,09,14,32,9.60
2008,07,09,14,33,19.30
2008,07,09,14,34,17.70
2008,07,09,14,35,14.50
2008,07,09,14,36,17.70
2008,07,09,14,37,14.50
2008,07,09,14,38,16.10
2008,07,09,14,39,19.30
2008,07,09,14,40,25.70
2008,07,09,14,41,20.90
2008,07,09,14,42,20.90
2008,07,09,14,43,24.20
2008,07,09,14,44,22.50
2008,07,09,14,45,16.10
2008,07,09,14,46,19.30
2008,07,09,14,47,20.90
2008,07,09,14,48,20.90
2008,07,09,14,49,19.30
2008,07,09,14,50,19.30
2008,07,09,14,51,19.30
2008,07,09,14,52,17.70
2008,07,09,14,53,25.70
2008,07,09,14,54,20.90
2008,07,09,14,55,19.30
2008,07,09,14,56,16.10
2008,07,09,14,57,19.30
2008,07,09,14,58,19.30
2008,07,09,14,59,17.70
2008,07,09,15,00,16.10
2008,07,09,15,01,11.30
2008,07,09,15,02,22.50
2008,07,09,15,03,22.50
2008,07,09,15,04,20.90
2008,07,09,15,05,17.70
2008,07,09,15,06,14.50
2008,07,09,15,07,20.90
2008,07,09,15,08,17.70
2008,07,09,15,09,22.50
2008,07,09,15,10,17.70
2008,07,09,15,11,14.50
2008,07,09,15,12,16.10
2008,07,09,15,13,17.70
2008,07,09,15,14,19.30
2008,07,09,15,15,20.90
2008,07,09,15,16,19.30
2008,07,09,15,17,20.90
2008,07,09,15,18,16.10
2008,07,09,15,19,16.10
2008,07,09,15,20,17.70
2008,07,09,15,21,24.20
2008,07,09,15,22,24.20
2008,07,09,15,23,19.30
2008,07,09,15,24,20.90
2008,07,09,15,25,20.90
2008,07,09,15,26,17.70
2008,07,09,15,27,20.90
2008,07,09,15,28,20.90
2008,07,09,15,29,16.10
2008,07,09,15,30,20.90
2008,07,09,15,31,22.50
2008,07,09,15,32,27.40
2008,07,09,15,33,22.50
2008,07,09,15,34,17.70
2008,07,09,15,35,19.30
2008,07,09,15,36,19.30
2008,07,09,15,37,20.90
2008,07,09,15,38,19.30
2008,07,09,15,39,14.50
2008,07,09,15,40,24.20
2008,07,09,15,41,19.30
2008,07,09,15,42,22.50
2008,07,09,15,43,22.50
2008,07,09,15,44,20.90
2008,07,09,15,45,16.10
2008,07,09,15,46,14.50
2008,07,09,15,47,19.30
2008,07,09,15,48,19.30
2008,07,09,15,49,12.90
2008,07,09,15,50,19.30
2008,07,09,15,51,19.30
2008,07,09,15,52,16.10
2008,07,09,15,53,17.70
2008,07,09,15,54,19.30
2008,07,09,15,55,19.30
2008,07,09,15,56,14.50
2008,07,09,15,57,14.50
2008,07,09,15,58,19.30
2008,07,09,15,59,16.10
2008,07,09,16,00,17.70
2008,07,09,16,01,17.70
2008,07,09,16,02,16.10
2008,07,09,16,03,19.30
2008,07,09,16,04,22.50
2008,07,09,16,05,19.30
2008,07,09,16,06,17.70
2008,07,09,16,07,16.10
2008,07,09,16,08,20.90
2008,07,09,16,09,16.10
2008,07,09,16,10,11.30
2008,07,09,16,11,17.70
2008,07,09,16,12,20.90
2008,07,09,16,13,19.30
2008,07,09,16,14,16.10
2008,07,09,16,15,16.10
2008,07,09,16,16,11.30
2008,07,09,16,17,22.50
2008,07,09,16,18,22.50
2008,07,09,16,19,20.90
2008,07,09,16,20,16.10
2008,07,09,16,21,16.10
2008,07,09,16,22,19.30
2008,07,09,16,23,12.90
2008,07,09,16,24,17.70
2008,07,09,16,25,9.60
2008,07,09,16,26,17.70
2008,07,09,16,27,16.10
2008,07,09,16,28,19.30
2008,07,09,16,29,16.10
2008,07,09,16,30,17.70
2008,07,09,16,31,16.10
2008,07,09,16,32,14.50
2008,07,09,16,33,20.90
2008,07,09,16,34,17.70
2008,07,09,16,35,16.10
2008,07,09,16,36,20.90
2008,07,09,16,37,19.30
2008,07,09,16,38,16.10
2008,07,09,16,39,9.60
2008,07,09,16,40,12.90
2008,07,09,16,41,16.10
2008,07,09,16,42,16.10
2008,07,09,16,43,19.30
2008,07,09,16,44,20.90
2008,07,09,16,45,19.30
2008,07,09,16,46,19.30
2008,07,09,16,47,9.60
2008,07,09,16,48,14.50
2008,07,09,16,49,17.70
2008,07,09,16,50,8.10
2008,07,09,16,51,11.30
2008,07,09,16,52,17.70
2008,07,09,16,53,14.50
2008,07,09,16,54,17.70
2008,07,09,16,55,20.90
2008,07,09,16,56,14.50
2008,07,09,16,57,9.60
2008,07,09,16,58,14.50
2008,07,09,16,59,16.10
2008,07,09,17,00,16.10
2008,07,09,17,01,19.30
2008,07,09,17,02,16.10
2008,07,09,17,03,17.70
2008,07,09,17,04,19.30
2008,07,09,17,05,17.70
2008,07,09,17,06,20.90
2008,07,09,17,07,20.90
2008,07,09,17,08,16.10
2008,07,09,17,09,14.50
2008,07,09,17,10,17.70
2008,07,09,17,11,19.30
2008,07,09,17,12,17.70
2008,07,09,17,13,16.10
2008,07,09,17,14,19.30
2008,07,09,17,15,16.10
2008,07,09,17,16,17.70
2008,07,09,17,17,12.90
2008,07,09,17,18,17.70
2008,07,09,17,19,19.30
2008,07,09,17,20,14.50
2008,07,09,17,21,16.10
2008,07,09,17,22,17.70
2008,07,09,17,23,16.10
2008,07,09,17,24,16.10
2008,07,09,17,25,17.70
2008,07,09,17,26,12.90
2008,07,09,17,27,16.10
2008,07,09,17,28,14.50
2008,07,09,17,29,14.50
2008,07,09,17,30,11.30
2008,07,09,17,31,12.90
2008,07,09,17,32,12.90
2008,07,09,17,33,11.30
2008,07,09,17,34,14.50
2008,07,09,17,35,14.50
2008,07,09,17,36,16.10
2008,07,09,17,37,11.30
2008,07,09,17,38,11.30
2008,07,09,17,39,14.50